Terminal Aerodrome Forecast
Issued by NWS Topeka, KS

Home | Current Version | Previous Version | Graphics & Text | Print | Product List | Glossary On
Versions: 1 2 3 4 5 6 7 8 9 10 11 12 13 14 15 16 17 18 19
000
FTUS43 KTOP 232320
TAFTOP
TAF
KTOP 232320Z 2400/2424 32015G25KT P6SM VCSH BKN050
      TEMPO 2400/2402 -SHRA BKN040
     FM240200 32007KT P6SM SCT025 BKN035
     FM241500 34012G18KT P6SM SCT050=

USA.gov is the U.S. government's official web portal to all federal, state and local government web resources and services.